Location: Unspecified
(0.0000°N, 0.0000°E)
Time: 22:03:39
(UTC+00:00)

STARLINK-1305 - Visible Passes

Search period start: 12 January 2025 00:00
Search period end: 22 January 2025 00:00
Orbit: 546 x 548 km, 53.1° (Epoch: 12 January)

Date Brightness Start Highest point End Pass type
(mag) Time Alt. Az. Time Alt. Az. Time Alt. Az.
16 Jan 5.6 19:03:44 10° NNE 19:04:35 13° NNE 19:04:35 13° NNE visible
17 Jan 4.7 18:56:33 10° N 18:59:51 23° NE 19:02:32 13° ESE visible
17 Jan 6.4 20:36:24 10° W 20:38:29 17° WSW 20:38:29 17° WSW visible
18 Jan 4.1 18:49:44 10° NNW 18:53:32 36° NE 18:57:19 10° ESE visible
18 Jan 6.9 20:31:33 10° WSW 20:32:51 11° SW 20:34:10 10° SW visible
19 Jan 3.6 18:43:09 10° NNW 18:47:11 58° NE 18:51:15 10° SE visible
20 Jan 3.7 18:36:45 10° NW 18:40:51 86° SW 18:44:59 10° SSE visible
21 Jan 4.6 18:30:30 10° NW 18:34:30 53° SW 18:38:32 10° SSE visible
